KB0UOA Weather Reports


Display with metric or nautical units.
time (UTC)temp
F
wind
direction
speed
MPH
gust
MPH
rain 1hr
in
rain 24hr
in
rain mn
in
humidity
%
barometer
mb
20260502152305 58 87 2.0 7.0 0.00 0.09 0.06 44 1022.5
20260502152204 58 88 2.0 7.0 0.00 0.09 0.06 43 1022.5
20260502152005 58 90 3.0 7.0 0.00 0.09 0.06 44 1022.5
20260502151905 58 91 3.0 7.0 0.00 0.09 0.06 45 1022.5
20260502151805 58 90 3.0 7.0 0.00 0.09 0.06 41 1022.5
20260502151705 58 93 3.0 7.0 0.00 0.09 0.06 40 1022.5
20260502151605 58 94 2.0 6.0 0.00 0.09 0.06 43 1022.5
20260502151405 58 95 2.0 6.0 0.00 0.09 0.06 43 1022.5
20260502151305 58 94 3.0 6.0 0.00 0.09 0.06 44 1022.5
20260502151204 57 90 3.0 7.0 0.00 0.09 0.06 42 1022.5
20260502151104 57 91 3.0 7.0 0.00 0.09 0.06 42 1022.5
20260502150904 57 90 2.0 7.0 0.00 0.09 0.06 43 1022.5
20260502150805 57 90 2.0 7.0 0.00 0.09 0.06 42 1022.4
20260502150605 57 93 2.0 7.0 0.00 0.09 0.06 47 1022.5
20260502150504 57 94 2.0 7.0 0.00 0.09 0.06 44 1022.4
20260502150405 57 96 2.0 7.0 0.00 0.09 0.06 41 1022.4
20260502150304 57 99 2.0 7.0 0.00 0.09 0.06 43 1022.5
20260502150205 57 104 2.0 6.0 0.00 0.09 0.06 42 1022.5
20260502140104 52 93 3.0 11.0 0.00 0.09 0.06 52 1022.1
20260502130504 49 86 1.0 6.0 0.00 0.09 0.06 66 1021.7
20260502130404 49 86 1.0 6.0 0.00 0.09 0.06 64 1021.7
20260502130304 49 85 1.0 6.0 0.00 0.09 0.06 63 1021.7
20260502130204 49 86 1.0 6.0 0.00 0.09 0.06 64 1021.7
20260502123805 46 99 0.0 4.0 0.00 0.09 0.06 74 1021.4
20260502123704 46 99 0.0 4.0 0.00 0.09 0.06 76 1021.5
20260502123505 46 97 0.0 4.0 0.00 0.09 0.06 76 1021.4
20260502123404 46 96 0.0 4.0 0.00 0.09 0.06 77 1021.4
20260502123304 46 96 0.0 4.0 0.00 0.09 0.06 77 1021.4
20260502123205 45 96 0.0 4.0 0.00 0.09 0.06 77 1021.4
20260502123104 45 95 0.0 4.0 0.00 0.09 0.06 79 1021.3
20260502123004 45 90 0.0 1.0 0.00 0.09 0.06 80 1021.3
20260502122904 45 90 0.0 1.0 0.00 0.09 0.06 80 1021.3
20260502122804 44 90 0.0 1.0 0.00 0.09 0.06 81 1021.3
20260502122604 44 90 0.0 1.0 0.00 0.09 0.06 82 1021.3
20260502122504 44 90 0.0 1.0 0.00 0.09 0.06 82 1021.3
20260502122404 43 90 0.0 1.0 0.00 0.09 0.06 83 1021.3
20260502122306 43 90 0.0 1.0 0.00 0.09 0.06 83 1021.3
20260502122205 43 90 0.0 1.0 0.00 0.09 0.06 83 1021.3
20260502122105 42 90 0.0 1.0 0.00 0.09 0.06 83 1021.2
20260502122005 42 90 0.0 1.0 0.00 0.09 0.06 83 1021.2
20260502121804 42 90 0.0 1.0 0.00 0.09 0.06 83 1021.2
20260502121704 42 90 0.0 1.0 0.00 0.09 0.06 83 1021.2
20260502121605 42 90 0.0 1.0 0.00 0.09 0.06 83 1021.1
20260502121504 42 90 0.0 1.0 0.00 0.09 0.06 83 1021.1
20260502121304 42 90 0.0 1.0 0.00 0.09 0.06 83 1021.1
20260502121105 42 90 0.0 1.0 0.00 0.09 0.06 83 1021.1
20260502121005 42 90 0.0 1.0 0.00 0.09 0.06 83 1021.1
20260502120804 42 90 0.0 1.0 0.00 0.09 0.06 83 1021.1
20260502120604 42 0 0.0 0.0 0.00 0.09 0.06 83 1021.0
20260502120504 42 0 0.0 0.0 0.00 0.09 0.06 83 1021.0
20260502120404 42 90 0.0 1.0 0.00 0.09 0.06 83 1021.0
20260502120205 42 90 0.0 1.0 0.00 0.09 0.06 83 1021.0
20260502120105 42 90 0.0 1.0 0.00 0.09 0.06 83 1021.0
20260502115904 42 90 0.0 1.0 0.00 0.09 0.06 83 1021.0
20260502115804 42 90 0.0 1.0 0.00 0.09 0.06 83 1020.9
20260502115704 42 90 0.0 1.0 0.00 0.09 0.06 83 1020.9
20260502115604 42 90 0.0 1.0 0.00 0.09 0.06 83 1021.0
20260502115504 42 90 0.0 1.0 0.00 0.09 0.06 83 1020.9
20260502115404 42 90 0.0 1.0 0.00 0.09 0.06 83 1020.9
20260502115306 42 90 0.0 1.0 0.00 0.09 0.06 83 1020.9
20260502115205 42 90 0.0 1.0 0.00 0.09 0.06 83 1020.9
20260502115105 42 90 0.0 1.0 0.00 0.09 0.06 84 1020.9
20260502115005 42 88 0.0 1.0 0.00 0.09 0.06 84 1020.8
20260502114904 42 79 0.0 1.0 0.00 0.09 0.06 84 1020.9
20260502114804 42 79 0.0 1.0 0.00 0.09 0.06 84 1020.8
20260502114704 42 80 0.0 1.0 0.00 0.09 0.06 85 1020.8
20260502114605 42 86 0.0 1.0 0.00 0.09 0.06 85 1020.8
20260502114505 42 86 0.0 1.0 0.00 0.09 0.06 86 1020.8
20260502114404 41 86 0.0 1.0 0.00 0.09 0.06 86 1020.8
20260502114104 41 84 0.0 1.0 0.00 0.09 0.06 87 1020.8
20260502114004 41 84 0.0 1.0 0.00 0.09 0.06 88 1020.7
20260502113904 41 92 0.0 1.0 0.00 0.09 0.06 88 1020.7
20260502113804 41 92 0.0 1.0 0.00 0.09 0.06 88 1020.7
20260502113704 41 92 0.0 1.0 0.00 0.09 0.06 88 1020.7
20260502113604 41 0 0.0 0.0 0.00 0.09 0.06 88 1020.7
20260502113405 41 0 0.0 0.0 0.00 0.09 0.06 88 1020.7
20260502113304 41 0 0.0 0.0 0.00 0.09 0.06 88 1020.6
20260502113204 41 0 0.0 0.0 0.00 0.09 0.06 88 1020.6
20260502113104 41 0 0.0 0.0 0.00 0.09 0.06 89 1020.6
20260502113005 41 0 0.0 0.0 0.00 0.09 0.06 89 1020.6
20260502112904 41 0 0.0 0.0 0.00 0.09 0.06 89 1020.6
20260502112804 41 0 0.0 0.0 0.00 0.09 0.06 89 1020.6
20260502112704 41 0 0.0 0.0 0.00 0.09 0.06 89 1020.6
20260502112605 41 0 0.0 0.0 0.00 0.09 0.06 89 1020.5
20260502112504 41 0 0.0 0.0 0.00 0.09 0.06 89 1020.6
20260502112405 41 0 0.0 0.0 0.00 0.09 0.06 89 1020.5
20260502112204 41 0 0.0 0.0 0.00 0.09 0.06 89 1020.5
20260502112104 41 0 0.0 0.0 0.00 0.09 0.06 89 1020.5
20260502112005 41 0 0.0 0.0 0.00 0.09 0.06 89 1020.5
20260502111904 41 0 0.0 0.0 0.00 0.09 0.06 89 1020.5
20260502111804 41 0 0.0 0.0 0.00 0.09 0.06 89 1020.5
20260502111704 41 0 0.0 0.0 0.00 0.09 0.06 89 1020.4
20260502111605 41 0 0.0 0.0 0.00 0.09 0.06 89 1020.4
20260502111404 41 0 0.0 0.0 0.00 0.09 0.06 89 1020.5
20260502111304 41 0 0.0 0.0 0.00 0.09 0.06 89 1020.5
20260502111105 41 0 0.0 0.0 0.00 0.09 0.06 89 1020.4
20260502111004 41 0 0.0 0.0 0.00 0.09 0.06 88 1020.4
20260502110804 41 0 0.0 0.0 0.00 0.09 0.06 88 1020.4
20260502110704 42 0 0.0 0.0 0.00 0.09 0.06 88 1020.4
20260502110505 42 0 0.0 0.0 0.00 0.09 0.06 88 1020.4
20260502110404 42 0 0.0 0.0 0.00 0.09 0.06 88 1020.4
20260502110305 42 0 0.0 0.0 0.00 0.09 0.06 88 1020.4
20260502110204 42 0 0.0 0.0 0.00 0.09 0.06 88 1020.4
20260502110104 42 0 0.0 0.0 0.00 0.09 0.06 88 1020.4
20260502110004 42 0 0.0 0.0 0.00 0.09 0.06 88 1020.4
20260502105804 42 0 0.0 0.0 0.00 0.09 0.06 88 1020.4
20260502105704 42 0 0.0 0.0 0.00 0.09 0.06 88 1020.4
20260502105505 42 0 0.0 0.0 0.00 0.09 0.06 88 1020.3
20260502105405 42 0 0.0 0.0 0.00 0.09 0.06 88 1020.3
20260502105105 42 0 0.0 0.0 0.00 0.09 0.06 88 1020.3
20260502105005 42 0 0.0 0.0 0.00 0.09 0.06 88 1020.3
20260502104905 42 0 0.0 0.0 0.00 0.09 0.06 88 1020.4
20260502104805 42 0 0.0 0.0 0.00 0.09 0.06 88 1020.3
20260502104704 42 0 0.0 0.0 0.00 0.09 0.06 88 1020.3
20260502104605 42 0 0.0 0.0 0.00 0.09 0.06 88 1020.3
20260502104505 42 0 0.0 0.0 0.00 0.09 0.06 88 1020.2
20260502104405 42 0 0.0 0.0 0.00 0.09 0.06 88 1020.3
20260502104305 42 0 0.0 0.0 0.00 0.09 0.06 88 1020.3
20260502104205 42 0 0.0 0.0 0.00 0.09 0.06 88 1020.3
20260502104104 43 0 0.0 0.0 0.00 0.09 0.06 88 1020.2
20260502104004 43 0 0.0 0.0 0.00 0.09 0.06 88 1020.2
20260502103904 43 0 0.0 0.0 0.00 0.09 0.06 88 1020.2
20260502103804 43 0 0.0 0.0 0.00 0.09 0.06 88 1020.2
20260502103704 43 0 0.0 0.0 0.00 0.09 0.06 88 1020.2
20260502103604 43 0 0.0 0.0 0.00 0.09 0.06 88 1020.2
20260502103505 43 0 0.0 0.0 0.00 0.09 0.06 88 1020.2
20260502103404 43 0 0.0 0.0 0.00 0.09 0.06 88 1020.3
20260502103204 43 0 0.0 0.0 0.00 0.09 0.06 88 1020.2
20260502103004 43 0 0.0 0.0 0.00 0.09 0.06 88 1020.2
20260502102904 43 0 0.0 0.0 0.00 0.09 0.06 88 1020.2
20260502102804 43 0 0.0 0.0 0.00 0.09 0.06 88 1020.3
20260502102704 43 0 0.0 0.0 0.00 0.09 0.06 88 1020.3
20260502102605 43 0 0.0 0.0 0.00 0.09 0.06 88 1020.3
20260502102306 44 0 0.0 0.0 0.00 0.09 0.06 88 1020.2
20260502102104 44 0 0.0 0.0 0.00 0.09 0.06 88 1020.2
20260502102004 44 0 0.0 0.0 0.00 0.09 0.06 88 1020.2
20260502101904 44 89 0.0 1.0 0.00 0.09 0.06 88 1020.2
20260502101604 44 89 0.0 1.0 0.00 0.09 0.06 88 1020.3
20260502101404 44 89 0.0 1.0 0.00 0.09 0.06 88 1020.2
20260502101204 44 89 0.0 1.0 0.00 0.09 0.06 88 1020.3
20260502101005 44 87 0.0 3.0 0.00 0.09 0.06 88 1020.2
20260502100905 44 85 0.0 3.0 0.00 0.09 0.06 88 1020.2
20260502100805 44 85 0.0 3.0 0.00 0.09 0.06 88 1020.2
20260502100705 44 85 0.0 3.0 0.00 0.09 0.06 88 1020.2
20260502100605 44 85 0.0 3.0 0.00 0.09 0.06 88 1020.2
20260502100505 45 84 0.0 3.0 0.00 0.09 0.06 88 1020.2
20260502100405 45 83 0.0 3.0 0.00 0.09 0.06 88 1020.2
20260502100305 45 78 0.0 3.0 0.01 0.09 0.06 88 1020.1
20260502100205 45 80 0.0 3.0 0.01 0.09 0.06 88 1020.2
20260502100105 45 77 0.0 3.0 0.01 0.09 0.06 88 1020.2
20260502091504 47 79 0.0 2.0 0.01 0.09 0.06 92 1019.9
20260502091304 47 78 0.0 2.0 0.01 0.09 0.06 92 1020.0
20260502091204 47 78 0.0 2.0 0.01 0.09 0.06 92 1020.0
20260502091104 47 78 0.0 2.0 0.01 0.09 0.06 92 1020.0
20260502090904 47 79 0.0 1.0 0.01 0.09 0.06 92 1020.0
20260502090805 47 84 0.0 1.0 0.01 0.09 0.06 92 1019.9
20260502090704 47 85 0.0 1.0 0.01 0.09 0.06 93 1019.9
20260502090504 47 74 0.0 2.0 0.01 0.09 0.06 93 1019.9
20260502090404 47 75 0.0 2.0 0.00 0.08 0.05 93 1019.9
20260502090304 47 76 0.0 2.0 0.00 0.08 0.05 93 1019.9
20260502090204 47 76 0.0 2.0 0.00 0.08 0.05 93 1019.9
20260502090104 47 76 0.0 2.0 0.00 0.08 0.05 93 1019.9
20260502080104 49 0 0.0 0.0 0.00 0.08 0.05 94 1019.4
20260502071504 51 0 0.0 0.0 0.00 0.08 0.05 93 1019.6
20260502071404 51 0 0.0 0.0 0.00 0.08 0.05 93 1019.6
20260502071304 51 0 0.0 0.0 0.00 0.08 0.05 93 1019.6
20260502071204 51 0 0.0 0.0 0.00 0.08 0.05 93 1019.6
20260502071004 51 0 0.0 0.0 0.00 0.08 0.05 93 1019.7
20260502070904 51 0 0.0 0.0 0.00 0.08 0.05 93 1019.7
20260502070804 51 0 0.0 0.0 0.00 0.08 0.05 93 1019.8
20260502070704 51 0 0.0 0.0 0.00 0.08 0.05 93 1019.8
20260502070604 51 0 0.0 0.0 0.00 0.08 0.05 93 1019.8
20260502070504 51 0 0.0 0.0 0.00 0.08 0.05 93 1019.9
20260502070404 51 0 0.0 0.0 0.00 0.08 0.05 93 1020.0
20260502070304 51 0 0.0 0.0 0.00 0.08 0.05 93 1020.0
20260502070204 51 0 0.0 0.0 0.00 0.08 0.05 93 1020.1
20260502070104 51 0 0.0 0.0 0.00 0.08 0.05 93 1020.1
20260502070004 51 0 0.0 0.0 0.00 0.08 0.05 93 1020.1
20260502065904 51 0 0.0 0.0 0.00 0.08 0.05 93 1020.1
20260502065804 51 0 0.0 0.0 0.00 0.08 0.05 93 1020.1
20260502065604 51 0 0.0 0.0 0.00 0.08 0.05 93 1020.0
20260502065504 51 0 0.0 0.0 0.00 0.08 0.05 93 1019.9
20260502065404 51 0 0.0 0.0 0.00 0.08 0.05 93 1020.0
20260502065204 51 0 0.0 0.0 0.00 0.08 0.05 93 1020.1
20260502065004 51 0 0.0 0.0 0.00 0.08 0.05 93 1020.3
20260502064904 51 0 0.0 0.0 0.00 0.08 0.05 93 1020.3
20260502064804 51 0 0.0 0.0 0.00 0.08 0.05 93 1020.4
20260502064704 51 0 0.0 0.0 0.00 0.08 0.05 93 1020.5
20260502064604 51 0 0.0 0.0 0.00 0.08 0.05 93 1020.5
20260502064505 51 0 0.0 0.0 0.00 0.08 0.05 93 1020.5
20260502064404 51 0 0.0 0.0 0.00 0.08 0.05 93 1020.4
20260502064204 51 0 0.0 0.0 0.00 0.08 0.05 93 1020.3
20260502064104 51 0 0.0 0.0 0.00 0.08 0.05 92 1020.2
20260502064004 51 0 0.0 0.0 0.00 0.08 0.05 92 1020.1
20260502063904 51 0 0.0 0.0 0.00 0.08 0.05 92 1020.1
20260502063804 51 0 0.0 0.0 0.00 0.08 0.05 92 1020.1
20260502063704 51 0 0.0 0.0 0.00 0.08 0.05 92 1020.1
20260502063604 51 0 0.0 0.0 0.00 0.08 0.05 92 1020.0
20260502063504 51 0 0.0 0.0 0.00 0.08 0.05 92 1020.0
20260502063404 51 0 0.0 0.0 0.00 0.08 0.05 92 1020.0
20260502063304 51 0 0.0 0.0 0.00 0.08 0.05 92 1019.9
20260502063204 51 0 0.0 0.0 0.00 0.08 0.05 92 1019.8
20260502063104 51 0 0.0 0.0 0.00 0.08 0.05 92 1019.8
20260502063004 51 0 0.0 0.0 0.00 0.08 0.05 92 1019.8
20260502062904 51 0 0.0 0.0 0.00 0.08 0.05 92 1019.7
20260502062804 51 0 0.0 0.0 0.00 0.08 0.05 92 1019.6
20260502062704 51 0 0.0 0.0 0.00 0.08 0.05 92 1019.6
20260502062504 51 138 0.0 1.0 0.00 0.08 0.05 92 1019.5
20260502062404 51 138 0.0 1.0 0.00 0.08 0.05 92 1019.4
20260502062306 51 139 0.0 1.0 0.00 0.08 0.05 92 1019.4
20260502062204 51 139 0.0 1.0 0.00 0.08 0.05 92 1019.4
20260502061904 51 139 0.0 1.0 0.00 0.08 0.05 92 1019.5
20260502061804 51 139 0.0 1.0 0.00 0.08 0.05 92 1019.5
20260502061704 51 139 0.0 1.0 0.00 0.08 0.05 92 1019.6
20260502061604 51 138 0.0 1.0 0.00 0.08 0.05 92 1019.6
20260502061404 51 139 0.0 1.0 0.00 0.08 0.05 91 1019.7
20260502061204 51 138 0.0 1.0 0.01 0.08 0.05 91 1019.8
20260502061004 51 139 0.0 1.0 0.01 0.08 0.05 91 1019.9
20260502060904 51 139 0.0 1.0 0.01 0.08 0.05 91 1019.9
20260502060804 51 139 0.0 1.0 0.01 0.08 0.05 91 1019.9
20260502060704 51 139 0.0 1.0 0.01 0.08 0.05 91 1019.8
20260502060604 51 139 0.0 1.0 0.01 0.08 0.05 91 1019.7
20260502060504 51 139 0.0 1.0 0.01 0.08 0.05 90 1019.6
20260502060404 51 139 0.0 1.0 0.02 0.08 0.05 90 1019.6
20260502060304 51 132 0.0 1.0 0.02 0.08 0.05 90 1019.6
20260502060204 51 132 0.0 1.0 0.03 0.08 0.05 90 1019.5
20260502060104 51 132 0.0 1.0 0.04 0.08 0.05 90 1019.5
20260502060004 51 129 0.0 1.0 0.05 0.08 0.05 90 1019.5
20260502055904 51 127 0.0 1.0 0.05 0.08 0.05 90 1019.5
20260502055804 51 127 0.0 1.0 0.07 0.08 0.05 90 1019.5
20260502055704 51 122 0.0 1.0 0.07 0.08 0.05 90 1019.5
20260502055604 51 121 0.0 1.0 0.07 0.08 0.05 90 1019.5
20260502055504 51 120 0.0 1.0 0.07 0.08 0.05 90 1019.5
20260502055404 51 120 0.0 1.0 0.07 0.08 0.05 90 1019.5
20260502055306 51 111 0.0 1.0 0.07 0.08 0.05 89 1019.5
20260502055204 51 112 0.0 1.0 0.07 0.08 0.05 89 1019.5
20260502055104 51 112 0.0 1.0 0.07 0.08 0.05 89 1019.5
20260502055004 51 112 0.0 1.0 0.07 0.08 0.05 89 1019.5
20260502054904 51 112 0.0 1.0 0.07 0.08 0.05 89 1019.4
20260502054704 51 112 0.0 1.0 0.07 0.08 0.05 89 1019.3
20260502054604 51 112 0.0 1.0 0.07 0.08 0.05 89 1019.3
20260502054504 51 112 0.0 1.0 0.07 0.08 0.05 89 1019.3
20260502054404 51 112 0.0 1.0 0.07 0.08 0.05 89 1019.3
20260502054304 51 112 0.0 1.0 0.07 0.08 0.05 89 1019.3
20260502054204 51 112 0.0 1.0 0.07 0.08 0.05 89 1019.4
20260502054004 51 113 0.0 1.0 0.07 0.08 0.05 88 1019.4
20260502053904 51 113 0.0 1.0 0.07 0.08 0.05 88 1019.3
20260502053804 52 113 0.0 1.0 0.07 0.08 0.05 88 1019.3
20260502053704 52 113 0.0 1.0 0.07 0.08 0.05 88 1019.4
20260502053604 52 113 0.0 1.0 0.07 0.08 0.05 88 1019.3
20260502053504 52 113 0.0 1.0 0.07 0.08 0.05 88 1019.4
20260502053405 52 113 0.0 1.0 0.07 0.08 0.05 87 1019.4
20260502053304 52 113 0.0 1.0 0.07 0.08 0.05 87 1019.4
20260502053204 52 113 0.0 1.0 0.07 0.08 0.05 87 1019.4
20260502053104 52 0 0.0 0.0 0.07 0.08 0.05 86 1019.3
20260502053004 52 0 0.0 0.0 0.07 0.08 0.05 86 1019.3
20260502052704 52 0 0.0 0.0 0.07 0.08 0.05 86 1019.3
20260502052504 52 113 0.0 1.0 0.07 0.08 0.05 86 1019.2
20260502052404 52 112 0.0 1.0 0.07 0.08 0.05 85 1019.2
20260502052306 52 112 0.0 1.0 0.07 0.08 0.05 85 1019.2
20260502052204 52 112 0.0 1.0 0.07 0.08 0.05 85 1019.2
20260502051904 52 112 0.0 1.0 0.07 0.08 0.05 84 1019.3
20260502051805 52 112 0.0 1.0 0.08 0.08 0.05 84 1019.4
20260502051704 52 112 0.0 1.0 0.08 0.08 0.05 84 1019.4
20260502051605 52 112 0.0 1.0 0.08 0.08 0.05 83 1019.4
20260502051505 52 112 0.0 1.0 0.08 0.08 0.05 83 1019.4
20260502051404 52 112 0.0 1.0 0.08 0.08 0.05 83 1019.5
20260502051205 53 115 0.0 1.0 0.07 0.07 0.04 84 1019.7
20260502051104 53 122 0.0 1.0 0.07 0.07 0.04 84 1019.7
20260502051004 53 122 0.0 1.0 0.07 0.07 0.04 83 1019.7
20260502050904 53 120 0.0 1.0 0.07 0.07 0.04 82 1019.7
20260502050804 53 115 0.0 1.0 0.07 0.07 0.04 82 1019.7
20260502050605 53 114 0.0 1.0 0.07 0.07 0.04 82 1019.7
20260502050504 53 118 0.0 1.0 0.07 0.07 0.04 82 1019.6
20260502050404 54 122 0.0 1.0 0.06 0.06 0.03 82 1019.5
20260502050304 54 122 0.0 1.0 0.06 0.06 0.03 82 1019.6
20260502050104 54 120 0.0 1.0 0.04 0.04 0.01 80 1019.7
20260502050006 54 122 1.0 1.0 0.03 0.03 0.00 80 1019.8
20260502045904 54 126 1.0 1.0 0.01 0.01 0.02 79 1019.7
20260502045804 54 130 0.0 1.0 0.01 0.01 0.01 79 1019.7
20260502045704 53 134 0.0 1.0 0.01 0.01 0.01 79 1019.6
20260502045504 53 138 0.0 1.0 0.01 0.01 0.01 78 1019.4
20260502045404 53 139 0.0 1.0 0.01 0.01 0.01 78 1019.3
20260502045306 53 139 0.0 1.0 0.01 0.01 0.01 78 1019.2
20260502045204 53 139 0.0 1.0 0.01 0.01 0.01 78 1019.1
20260502045104 53 139 0.0 1.0 0.01 0.01 0.01 78 1018.9
20260502045004 53 138 0.0 1.0 0.01 0.01 0.01 79 1018.9
20260502044804 53 138 0.0 1.0 0.01 0.01 0.01 79 1018.7
20260502044704 53 138 0.0 1.0 0.01 0.01 0.01 79 1018.6
20260502044604 53 138 0.0 1.0 0.01 0.01 0.01 79 1018.5
20260502044504 53 138 0.0 1.0 0.01 0.01 0.01 79 1018.5
20260502044404 53 138 0.0 1.0 0.01 0.01 0.01 79 1018.4
20260502044304 53 138 0.0 1.0 0.01 0.01 0.01 80 1018.4
20260502044204 53 144 0.0 2.0 0.01 0.01 0.01 80 1018.4
20260502044104 53 146 0.0 2.0 0.01 0.01 0.01 80 1018.4
20260502044004 53 144 0.0 2.0 0.01 0.01 0.01 80 1018.4
20260502043804 53 143 0.0 2.0 0.01 0.01 0.01 80 1018.4
20260502043704 54 143 0.0 2.0 0.01 0.01 0.01 80 1018.4
20260502043604 54 140 0.0 2.0 0.01 0.01 0.01 80 1018.4
20260502043504 54 140 0.0 2.0 0.01 0.01 0.01 81 1018.4
20260502043404 54 140 0.0 2.0 0.01 0.01 0.01 80 1018.4
20260502043304 54 140 0.0 2.0 0.01 0.01 0.01 80 1018.4
20260502043204 54 135 0.0 2.0 0.01 0.01 0.01 80 1018.4
20260502043004 54 127 0.0 1.0 0.01 0.01 0.01 80 1018.4
20260502042904 54 126 0.0 1.0 0.01 0.01 0.01 80 1018.5
20260502042804 54 126 0.0 1.0 0.01 0.01 0.01 80 1018.5
20260502042604 54 125 0.0 1.0 0.01 0.01 0.01 79 1018.5
20260502042306 54 125 0.0 1.0 0.01 0.01 0.01 78 1018.5
20260502042204 54 125 0.0 1.0 0.01 0.01 0.01 78 1018.5
20260502041904 54 125 0.0 1.0 0.00 0.00 0.00 78 1018.6
20260502041804 54 0 0.0 0.0 0.00 0.00 0.00 78 1018.7
20260502041704 54 0 0.0 0.0 0.00 0.00 0.00 78 1018.7
20260502041604 54 0 0.0 0.0 0.00 0.00 0.00 79 1018.7
20260502041504 54 0 0.0 0.0 0.00 0.00 0.00 78 1018.7
20260502041304 54 0 0.0 0.0 0.00 0.00 0.00 77 1018.6
20260502041204 54 0 0.0 0.0 0.00 0.00 0.00 77 1018.7
20260502041104 54 0 0.0 0.0 0.00 0.00 0.00 77 1018.6
20260502041004 54 0 0.0 0.0 0.00 0.00 0.00 77 1018.6
20260502040804 54 0 0.0 0.0 0.00 0.00 0.00 77 1018.6
20260502040704 54 0 0.0 0.0 0.00 0.00 0.00 77 1018.6
20260502040604 54 0 0.0 0.0 0.00 0.00 0.00 76 1018.7
20260502040404 54 0 0.0 0.0 0.00 0.00 0.00 76 1018.7
20260502040304 54 0 0.0 0.0 0.00 0.00 0.00 76 1018.7
20260502040204 54 0 0.0 0.0 0.00 0.00 0.00 76 1018.7
20260502040004 54 0 0.0 0.0 0.00 0.00 0.00 76 1018.6
20260502035904 54 0 0.0 0.0 0.00 0.00 0.00 76 1018.6
20260502035804 54 0 0.0 0.0 0.00 0.00 0.00 76 1018.6
20260502035704 54 0 0.0 0.0 0.00 0.00 0.00 77 1018.6
20260502035604 54 0 0.0 0.0 0.00 0.00 0.00 77 1018.5
20260502035504 54 0 0.0 0.0 0.00 0.00 0.00 77 1018.5
20260502035404 54 0 0.0 0.0 0.00 0.00 0.00 76 1018.5
20260502035306 54 0 0.0 0.0 0.00 0.00 0.00 76 1018.5
20260502035204 54 0 0.0 0.0 0.00 0.00 0.00 76 1018.5
20260502035104 54 0 0.0 0.0 0.00 0.00 0.00 76 1018.5
20260502035004 54 0 0.0 0.0 0.00 0.00 0.00 75 1018.6
20260502034904 54 0 0.0 0.0 0.00 0.00 0.00 76 1018.6
20260502034704 54 0 0.0 0.0 0.00 0.00 0.00 76 1018.6
20260502034504 54 0 0.0 0.0 0.00 0.00 0.00 75 1018.6
20260502034404 54 0 0.0 0.0 0.00 0.00 0.00 75 1018.6
20260502034304 54 0 0.0 0.0 0.00 0.00 0.00 75 1018.6
20260502034204 54 0 0.0 0.0 0.00 0.00 0.00 76 1018.6
20260502034104 54 0 0.0 0.0 0.00 0.00 0.00 76 1018.6
20260502034004 54 0 0.0 0.0 0.00 0.00 0.00 76 1018.6
20260502033904 54 0 0.0 0.0 0.00 0.00 0.00 76 1018.5
20260502033804 54 0 0.0 0.0 0.00 0.00 0.00 76 1018.5
20260502033604 54 0 0.0 0.0 0.00 0.00 0.00 77 1018.4
20260502033504 54 0 0.0 0.0 0.00 0.00 0.00 77 1018.5
20260502033404 54 113 0.0 1.0 0.00 0.00 0.00 77 1018.5
20260502033304 54 104 0.0 1.0 0.00 0.00 0.00 77 1018.4
20260502033204 54 104 0.0 1.0 0.00 0.00 0.00 77 1018.4
20260502033104 54 104 0.0 1.0 0.00 0.00 0.00 77 1018.4
20260502033004 54 104 0.0 1.0 0.00 0.00 0.00 77 1018.5
20260502032804 54 104 0.0 1.0 0.00 0.00 0.00 77 1018.5
20260502032704 54 101 0.0 1.0 0.00 0.00 0.00 77 1018.4
20260502032604 54 101 0.0 1.0 0.00 0.00 0.00 77 1018.4
20260502032504 54 101 0.0 1.0 0.00 0.00 0.00 76 1018.4
20260502032404 54 96 0.0 1.0 0.00 0.00 0.00 76 1018.4
20260502032306 54 96 0.0 1.0 0.00 0.00 0.00 76 1018.5
20260502032204 54 96 0.0 1.0 0.00 0.00 0.00 76 1018.5
20260502032104 54 96 0.0 1.0 0.00 0.00 0.00 76 1018.5
20260502032004 54 96 0.0 1.0 0.00 0.00 0.00 76 1018.5
20260502031904 54 96 0.0 1.0 0.00 0.00 0.00 76 1018.5
20260502031604 54 96 0.0 1.0 0.00 0.00 0.00 75 1018.4
20260502031504 54 96 0.0 1.0 0.00 0.00 0.00 75 1018.3
20260502031404 55 96 0.0 1.0 0.00 0.00 0.00 75 1018.3
20260502031204 55 96 0.0 1.0 0.00 0.00 0.00 74 1018.3
20260502031104 55 96 0.0 1.0 0.00 0.00 0.00 74 1018.3
20260502031004 55 96 0.0 1.0 0.00 0.00 0.00 74 1018.4
20260502030904 55 96 0.0 1.0 0.00 0.00 0.00 74 1018.3
20260502030804 55 96 0.0 1.0 0.00 0.00 0.00 73 1018.4
20260502030704 55 96 0.0 1.0 0.00 0.00 0.00 73 1018.4
20260502030604 55 96 0.0 1.0 0.00 0.00 0.00 73 1018.4
20260502030504 55 96 0.0 1.0 0.00 0.00 0.00 72 1018.4
20260502030404 55 96 0.0 1.0 0.00 0.00 0.00 71 1018.4
20260502030304 55 96 0.0 1.0 0.00 0.00 0.00 71 1018.4
20260502030104 55 96 0.0 1.0 0.00 0.00 0.00 71 1018.3
20260502030004 55 96 0.0 1.0 0.00 0.00 0.00 71 1018.4
20260502025904 56 96 0.0 1.0 0.00 0.00 0.00 71 1018.3
20260502025804 56 96 0.0 1.0 0.00 0.00 0.00 71 1018.3
20260502025704 56 96 0.0 1.0 0.00 0.00 0.00 70 1018.4
20260502025604 56 96 0.0 1.0 0.00 0.00 0.00 70 1018.3
20260502025504 56 96 0.0 1.0 0.00 0.00 0.00 70 1018.4
20260502025404 56 96 0.0 1.0 0.00 0.00 0.00 68 1018.4
20260502025204 56 95 0.0 1.0 0.00 0.00 0.00 64 1018.4
20260502025104 57 95 0.0 1.0 0.00 0.00 0.00 64 1018.4
20260502025004 57 95 0.0 1.0 0.00 0.00 0.00 64 1018.4
20260502024904 57 95 0.0 2.0 0.00 0.00 0.00 63 1018.5
20260502024804 57 95 0.0 2.0 0.00 0.00 0.00 62 1018.5
20260502024604 57 95 0.0 2.0 0.00 0.00 0.00 62 1018.4
20260502024504 57 95 0.0 2.0 0.00 0.00 0.00 61 1018.4
20260502024404 57 95 0.0 2.0 0.00 0.00 0.00 60 1018.4
20260502024304 57 95 0.0 2.0 0.00 0.00 0.00 60 1018.5
20260502024104 57 95 0.0 2.0 0.00 0.00 0.00 59 1018.4
20260502023904 57 95 0.0 2.0 0.00 0.00 0.00 59 1018.4
20260502023704 57 92 1.0 3.0 0.00 0.00 0.00 59 1018.4
20260502023604 57 89 1.0 3.0 0.00 0.00 0.00 58 1018.4
20260502023504 57 89 1.0 3.0 0.00 0.00 0.00 58 1018.3
20260502023404 57 89 1.0 3.0 0.00 0.00 0.00 58 1018.3
20260502023304 57 89 1.0 3.0 0.00 0.00 0.00 58 1018.3
20260502023204 57 89 0.0 3.0 0.00 0.00 0.00 58 1018.2
20260502023004 57 88 0.0 3.0 0.00 0.00 0.00 58 1018.2
20260502022904 57 88 0.0 3.0 0.00 0.00 0.00 58 1018.2
20260502022804 57 82 0.0 2.0 0.00 0.00 0.00 58 1018.1
20260502022704 57 86 0.0 2.0 0.00 0.00 0.00 59 1018.1
20260502022604 57 103 0.0 1.0 0.00 0.00 0.00 58 1018.1
20260502022504 57 103 0.0 1.0 0.00 0.00 0.00 58 1018.0
20260502022306 57 102 0.0 3.0 0.00 0.00 0.00 59 1017.9
20260502022204 58 102 0.0 3.0 0.00 0.00 0.00 58 1017.9
20260502022104 58 102 0.0 3.0 0.00 0.00 0.00 58 1017.9
20260502021905 58 102 0.0 3.0 0.00 0.00 0.00 58 1017.8
20260502021805 58 99 0.0 3.0 0.00 0.00 0.00 58 1017.8
20260502021705 58 98 1.0 3.0 0.00 0.00 0.00 58 1017.8
20260502021405 58 95 1.0 4.0 0.00 0.00 0.00 57 1017.8
20260502021305 58 93 1.0 4.0 0.00 0.00 0.00 57 1017.8
20260502021104 58 94 1.0 4.0 0.00 0.00 0.00 57 1017.8
20260502021004 58 95 1.0 4.0 0.00 0.00 0.00 57 1017.7
20260502020904 58 91 1.0 4.0 0.00 0.00 0.00 57 1017.7
20260502020604 58 84 1.0 4.0 0.00 0.00 0.00 56 1017.7
20260502020404 58 79 1.0 7.0 0.00 0.00 0.00 56 1017.7
20260502020304 58 83 1.0 7.0 0.00 0.00 0.00 56 1017.7
20260502020204 58 83 1.0 7.0 0.00 0.00 0.00 56 1017.7
20260502020105 58 84 1.0 7.0 0.00 0.00 0.00 56 1017.7
20260502020005 58 82 1.0 7.0 0.00 0.00 0.00 56 1017.8
20260502015905 58 84 1.0 7.0 0.00 0.00 0.00 56 1017.8
20260502015804 58 81 2.0 7.0 0.00 0.00 0.00 56 1017.8
20260502015704 58 77 2.0 7.0 0.00 0.00 0.00 56 1017.8
20260502015605 58 80 1.0 7.0 0.00 0.00 0.00 56 1017.8
20260502015504 58 81 2.0 6.0 0.00 0.00 0.00 56 1017.7
20260502015404 58 83 2.0 6.0 0.00 0.00 0.00 56 1017.8
20260502015305 58 79 2.0 6.0 0.00 0.00 0.00 56 1017.7
20260502015204 58 76 2.0 6.0 0.00 0.00 0.00 56 1017.7
20260502015004 58 75 2.0 6.0 0.00 0.00 0.00 56 1017.6
20260502014904 58 69 2.0 6.0 0.00 0.00 0.00 56 1017.7
20260502014804 58 69 2.0 5.0 0.00 0.00 0.00 55 1017.6
20260502014704 58 73 1.0 5.0 0.00 0.00 0.00 55 1017.6
20260502014604 58 71 1.0 5.0 0.00 0.00 0.00 55 1017.6
20260502014405 58 69 1.0 6.0 0.00 0.00 0.00 55 1017.5
20260502014305 58 71 1.0 6.0 0.00 0.00 0.00 55 1017.5
20260502014204 58 72 2.0 6.0 0.00 0.00 0.00 55 1017.5
20260502014104 58 73 1.0 6.0 0.00 0.00 0.00 55 1017.4
20260502014004 58 72 1.0 6.0 0.00 0.00 0.00 55 1017.4
20260502013904 58 78 2.0 6.0 0.00 0.00 0.00 55 1017.4
20260502013804 58 83 2.0 10.0 0.00 0.00 0.00 55 1017.4
20260502013604 59 83 2.0 10.0 0.00 0.00 0.00 55 1017.4
20260502013404 59 83 2.0 10.0 0.00 0.00 0.00 54 1017.4
20260502013304 59 84 2.0 10.0 0.00 0.00 0.00 54 1017.4
20260502013104 59 86 2.0 10.0 0.00 0.00 0.00 54 1017.4
20260502013004 59 86 2.0 10.0 0.00 0.00 0.00 54 1017.4
20260502012904 59 84 2.0 10.0 0.00 0.00 0.00 54 1017.4
20260502012804 59 78 1.0 6.0 0.00 0.00 0.00 54 1017.4
20260502012704 59 73 1.0 6.0 0.00 0.00 0.00 54 1017.4
20260502012605 59 63 1.0 6.0 0.00 0.00 0.00 54 1017.5
20260502012505 59 62 1.0 6.0 0.00 0.00 0.00 53 1017.5
20260502012405 59 46 1.0 4.0 0.00 0.00 0.00 54 1017.6
20260502012306 59 34 1.0 4.0 0.00 0.00 0.00 54 1017.6
20260502012204 59 37 1.0 4.0 0.00 0.00 0.00 53 1017.6
20260502012104 59 39 1.0 4.0 0.00 0.00 0.00 53 1017.6
20260502012004 59 40 1.0 4.0 0.00 0.00 0.00 53 1017.7
20260502011904 59 43 1.0 5.0 0.00 0.00 0.00 53 1017.7
20260502011804 59 43 1.0 5.0 0.00 0.00 0.00 53 1017.7
20260502011704 59 43 1.0 5.0 0.00 0.00 0.00 53 1017.7
20260502011604 59 47 1.0 5.0 0.00 0.00 0.00 53 1017.7
20260502011504 59 45 1.0 5.0 0.00 0.00 0.00 53 1017.6
20260502011404 59 45 1.0 5.0 0.00 0.00 0.00 53 1017.6
20260502011304 59 55 2.0 5.0 0.00 0.00 0.00 53 1017.6
20260502011105 59 50 2.0 6.0 0.00 0.00 0.00 53 1017.5
20260502011004 59 41 2.0 7.0 0.00 0.00 0.00 53 1017.5
20260502010904 59 41 2.0 7.0 0.00 0.00 0.00 53 1017.4
20260502010804 59 35 2.0 7.0 0.00 0.00 0.00 52 1017.4
20260502010704 59 36 2.0 7.0 0.00 0.00 0.00 52 1017.4
20260502010604 59 35 2.0 7.0 0.00 0.00 0.00 52 1017.4
20260502010504 59 35 3.0 7.0 0.00 0.00 0.00 52 1017.4
20260502010404 59 39 3.0 7.0 0.00 0.00 0.00 52 1017.5
20260502010204 59 38 2.0 7.0 0.00 0.00 0.00 52 1017.4
20260502010104 59 43 2.0 7.0 0.00 0.00 0.00 52 1017.4
20260502010005 59 50 2.0 7.0 0.00 0.00 0.00 52 1017.3
20260502005904 59 54 2.0 7.0 0.00 0.00 0.00 52 1017.3
20260502005704 59 68 3.0 9.0 0.00 0.00 0.00 51 1017.2
20260502005604 59 70 3.0 9.0 0.00 0.00 0.00 51 1017.1
20260502005504 59 73 2.0 9.0 0.00 0.00 0.00 52 1017.1
20260502005404 59 76 2.0 9.0 0.00 0.00 0.00 52 1017.1
20260502005306 59 78 3.0 9.0 0.00 0.00 0.00 52 1017.1
20260502005104 59 77 3.0 9.0 0.00 0.00 0.00 51 1017.1
20260502005004 59 77 3.0 9.0 0.00 0.00 0.00 51 1017.1
20260502004904 59 78 2.0 9.0 0.00 0.00 0.00 51 1017.1
20260502004804 59 76 2.0 8.0 0.00 0.00 0.00 51 1017.0
20260502004704 60 79 2.0 6.0 0.00 0.00 0.00 51 1017.1
20260502004604 60 78 2.0 6.0 0.00 0.00 0.00 51 1017.0
20260502004504 60 74 2.0 9.0 0.00 0.00 0.00 51 1017.0
20260502004404 60 74 2.0 9.0 0.00 0.00 0.00 51 1017.0
20260502004304 60 74 2.0 9.0 0.00 0.00 0.00 51 1017.0
20260502004204 60 74 2.0 9.0 0.00 0.00 0.00 51 1016.9
20260502004104 60 72 2.0 9.0 0.00 0.00 0.00 51 1016.9
20260502003904 60 71 2.0 9.0 0.00 0.00 0.00 52 1017.0
20260502003804 60 73 2.0 9.0 0.00 0.00 0.00 51 1017.0
20260502003605 60 65 2.0 9.0 0.00 0.00 0.00 51 1017.0
20260502003505 60 69 2.0 8.0 0.00 0.00 0.00 52 1017.0
20260502003305 60 69 2.0 6.0 0.00 0.00 0.00 51 1017.0
20260502003205 60 66 2.0 9.0 0.00 0.00 0.00 51 1017.0
20260502003104 60 62 2.0 9.0 0.00 0.00 0.00 52 1016.9
20260502002905 60 57 2.0 9.0 0.00 0.00 0.00 52 1017.0
20260502002704 60 49 2.0 9.0 0.00 0.00 0.00 51 1017.1
20260502002604 60 55 3.0 9.0 0.00 0.00 0.00 51 1017.0
20260502002504 60 53 3.0 9.0 0.00 0.00 0.00 51 1017.0
20260502002404 60 50 3.0 9.0 0.00 0.00 0.00 51 1017.1
20260502002306 60 46 3.0 9.0 0.00 0.00 0.00 51 1017.0
20260502002205 60 48 3.0 8.0 0.00 0.00 0.00 52 1017.0
20260502002105 60 46 3.0 8.0 0.00 0.00 0.00 52 1016.9
20260502002005 60 43 3.0 8.0 0.00 0.00 0.00 51 1017.0
20260502001905 60 39 3.0 8.0 0.00 0.00 0.00 51 1017.0
20260502001705 60 37 4.0 11.0 0.00 0.00 0.00 51 1017.1
20260502001605 60 33 4.0 11.0 0.00 0.00 0.00 51 1017.0
20260502001505 60 31 4.0 11.0 0.00 0.00 0.00 51 1017.0
20260502001405 60 26 3.0 11.0 0.00 0.00 0.00 51 1017.1
20260502001305 60 27 3.0 11.0 0.00 0.00 0.00 51 1017.1
20260502000905 61 35 3.0 11.0 0.00 0.00 0.00 51 1017.0
20260502000804 61 32 3.0 10.0 0.00 0.00 0.00 51 1017.0
20260502000705 61 34 3.0 10.0 0.00 0.00 0.00 50 1017.0
20260502000604 61 38 3.0 9.0 0.00 0.00 0.00 50 1017.0
20260502000505 61 37 3.0 9.0 0.00 0.00 0.00 50 1017.0
20260502000405 61 41 3.0 9.0 0.00 0.00 0.00 49 1017.0
20260502000305 61 38 3.0 9.0 0.00 0.00 0.00 49 1017.0
20260502000205 61 35 3.0 9.0 0.00 0.00 0.00 49 1017.0
20260502000105 61 38 3.0 9.0 0.00 0.00 0.00 48 1017.0
20260502000005 61 38 3.0 8.0 0.00 0.00 0.00 48 1016.9
20260501235905 61 36 3.0 7.0 0.00 0.00 0.00 48 1016.9
20260501235804 61 39 3.0 7.0 0.00 0.00 0.00 48 1016.9
20260501235704 61 39 3.0 7.0 0.00 0.00 0.00 48 1016.9
20260501235604 61 36 3.0 10.0 0.00 0.00 0.00 48 1016.9
20260501235504 61 37 4.0 10.0 0.00 0.00 0.00 48 1016.9
20260501235405 61 41 4.0 10.0 0.00 0.00 0.00 48 1016.9
20260501235306 62 44 4.0 10.0 0.00 0.00 0.00 48 1016.9
20260501235205 62 46 4.0 10.0 0.00 0.00 0.00 48 1016.8
20260501235105 62 48 4.0 10.0 0.00 0.00 0.00 47 1016.9
20260501235005 62 48 4.0 10.0 0.00 0.00 0.00 47 1016.8
20260501234905 62 46 4.0 10.0 0.00 0.00 0.00 47 1016.8
20260501234805 62 45 4.0 10.0 0.00 0.00 0.00 47 1016.8
20260501234705 62 46 3.0 10.0 0.00 0.00 0.00 46 1016.8
20260501234605 62 50 3.0 10.0 0.00 0.00 0.00 47 1016.8
20260501234504 62 53 3.0 10.0 0.00 0.00 0.00 47 1016.8
20260501234405 62 48 2.0 10.0 0.00 0.00 0.00 47 1016.8
20260501234304 62 44 2.0 8.0 0.00 0.00 0.00 48 1016.7
20260501234105 62 37 2.0 8.0 0.00 0.00 0.00 48 1016.7
20260501234005 62 27 3.0 11.0 0.00 0.00 0.00 48 1016.8
20260501233905 62 25 3.0 11.0 0.00 0.00 0.00 48 1016.8
20260501233805 62 31 3.0 11.0 0.00 0.00 0.00 48 1016.8
20260501233605 62 36 3.0 11.0 0.00 0.00 0.00 48 1016.8
20260501233505 62 42 3.0 11.0 0.00 0.00 0.00 47 1016.8
20260501233405 62 43 3.0 11.0 0.00 0.00 0.00 47 1016.8
20260501233305 62 47 4.0 11.0 0.00 0.00 0.00 47 1016.8
20260501233204 62 42 4.0 11.0 0.00 0.00 0.00 47 1016.8
20260501233104 62 41 4.0 11.0 0.00 0.00 0.00 47 1016.8
20260501233004 62 44 4.0 10.0 0.00 0.00 0.00 47 1016.8
20260501232804 62 41 4.0 10.0 0.00 0.00 0.00 47 1016.8
20260501232704 62 39 4.0 11.0 0.00 0.00 0.00 48 1016.8
20260501232605 62 35 4.0 11.0 0.00 0.00 0.00 48 1016.8
20260501232505 62 26 4.0 11.0 0.00 0.00 0.00 48 1016.6
20260501232405 62 30 4.0 11.0 0.00 0.00 0.00 48 1016.7
20260501232105 62 34 4.0 11.0 0.00 0.00 0.00 48 1016.6
20260501232005 62 35 4.0 11.0 0.00 0.00 0.00 48 1016.6
20260501231705 62 34 4.0 12.0 0.00 0.00 0.00 48 1016.6
20260501231405 62 30 3.0 12.0 0.00 0.00 0.00 49 1016.6
20260501231305 62 24 3.0 12.0 0.00 0.00 0.00 49 1016.6
20260501231205 62 23 3.0 12.0 0.00 0.00 0.00 48 1016.6
20260501231004 62 19 3.0 12.0 0.00 0.00 0.00 49 1016.6
20260501230904 62 15 3.0 12.0 0.00 0.00 0.00 50 1016.6
20260501230805 61 15 3.0 12.0 0.00 0.00 0.00 50 1016.6
20260501230605 61 11 4.0 12.0 0.00 0.00 0.00 50 1016.6
20260501230405 61 14 5.0 12.0 0.00 0.00 0.00 50 1016.6
20260501230305 61 14 5.0 12.0 0.00 0.00 0.00 50 1016.6
20260501230205 61 13 5.0 12.0 0.00 0.00 0.00 50 1016.6
20260501230005 61 12 5.0 12.0 0.00 0.00 0.00 50 1016.6
20260501225905 61 13 5.0 12.0 0.00 0.00 0.00 50 1016.6
20260501225705 61 12 5.0 12.0 0.00 0.00 0.00 51 1016.5
20260501225604 61 15 5.0 12.0 0.00 0.00 0.00 51 1016.5
20260501225405 61 9 5.0 13.0 0.00 0.00 0.00 52 1016.5
20260501225306 61 7 6.0 13.0 0.00 0.00 0.00 52 1016.5
20260501225204 61 8 6.0 13.0 0.00 0.00 0.00 52 1016.5
20260501225104 61 6 6.0 13.0 0.00 0.00 0.00 53 1016.5
20260501225004 62 6 6.0 13.0 0.00 0.00 0.00 53 1016.4
20260501224904 62 5 6.0 13.0 0.00 0.00 0.00 53 1016.5
20260501224805 62 1 6.0 13.0 0.00 0.00 0.00 52 1016.4
20260501224705 62 2 7.0 14.0 0.00 0.00 0.00 52 1016.5
20260501224605 62 354 7.0 14.0 0.00 0.00 0.00 50 1016.4
20260501224305 63 358 6.0 14.0 0.00 0.00 0.00 49 1016.6
20260501224105 64 356 6.0 14.0 0.00 0.00 0.00 47 1016.7
20260501223905 65 352 6.0 14.0 0.00 0.00 0.00 43 1016.5
20260501223505 66 6 4.0 9.0 0.00 0.00 0.00 35 1016.2
20260501223405 66 3 4.0 9.0 0.00 0.00 0.00 34 1016.2
20260501223305 66 1 4.0 9.0 0.00 0.00 0.00 34 1016.1
20260501223205 66 5 4.0 8.0 0.00 0.00 0.00 34 1016.1
20260501223105 66 8 4.0 8.0 0.00 0.00 0.00 34 1016.1
20260501223005 66 8 3.0 8.0 0.00 0.00 0.00 34 1016.1
20260501222904 66 13 3.0 8.0 0.00 0.00 0.00 35 1016.1
20260501222704 66 13 4.0 9.0 0.00 0.00 0.00 33 1016.0
20260501222504 67 16 4.0 9.0 0.00 0.00 0.00 32 1016.0
20260501222404 67 21 4.0 9.0 0.00 0.00 0.00 32 1016.0
20260501222306 67 28 3.0 9.0 0.00 0.00 0.00 32 1015.9
20260501222105 67 31 3.0 9.0 0.00 0.00 0.00 33 1015.9
20260501222005 67 38 3.0 9.0 0.00 0.00 0.00 33 1015.8
20260501221905 67 41 3.0 9.0 0.00 0.00 0.00 32 1015.8
20260501221805 68 46 3.0 9.0 0.00 0.00 0.00 32 1015.8
20260501221705 68 59 3.0 10.0 0.00 0.00 0.00 31 1015.7
20260501221605 68 59 3.0 10.0 0.00 0.00 0.00 31 1015.7
20260501221505 68 59 3.0 10.0 0.00 0.00 0.00 32 1015.7
20260501221405 68 60 3.0 10.0 0.00 0.00 0.00 31 1015.7
20260501221204 69 37 3.0 10.0 0.00 0.00 0.00 32 1015.7
20260501221004 69 12 2.0 10.0 0.00 0.00 0.00 30 1015.7
20260501220805 70 285 2.0 10.0 0.00 0.00 0.00 32 1015.5
20260501220704 70 289 2.0 7.0 0.00 0.00 0.00 31 1015.6
20260501220604 70 316 2.0 5.0 0.00 0.00 0.00 31 1015.7
20260501220404 71 6 2.0 5.0 0.00 0.00 0.00 30 1015.7
20260501220304 71 10 1.0 5.0 0.00 0.00 0.00 31 1015.7
20260501220204 71 19 1.0 5.0 0.00 0.00 0.00 32 1015.6
20260501220104 71 46 2.0 5.0 0.00 0.00 0.00 32 1015.6
20260501220005 71 61 2.0 5.0 0.00 0.00 0.00 29 1015.7
20260501215905 71 19 1.0 5.0 0.00 0.00 0.00 29 1015.7
20260501215705 71 212 1.0 5.0 0.00 0.00 0.00 29 1015.6
20260501215605 71 159 1.0 5.0 0.00 0.00 0.00 28 1015.6
20260501215505 71 351 1.0 4.0 0.00 0.00 0.00 28 1015.6
20260501215405 71 320 1.0 4.0 0.00 0.00 0.00 30 1015.6
20260501215305 71 296 1.0 4.0 0.00 0.00 0.00 29 1015.6
20260501215204 71 294 1.0 4.0 0.00 0.00 0.00 28 1015.6
20260501215104 71 292 2.0 4.0 0.00 0.00 0.00 29 1015.6
20260501215004 70 272 2.0 5.0 0.00 0.00 0.00 29 1015.7
20260501214904 70 266 2.0 5.0 0.00 0.00 0.00 29 1015.7
20260501214805 70 254 2.0 5.0 0.00 0.00 0.00 32 1015.7
20260501214705 70 258 2.0 5.0 0.00 0.00 0.00 28 1015.7
20260501214605 70 260 2.0 5.0 0.00 0.00 0.00 29 1015.7
20260501214505 70 258 2.0 5.0 0.00 0.00 0.00 28 1015.6
20260501214405 70 252 2.0 5.0 0.00 0.00 0.00 29 1015.7
20260501214305 70 248 2.0 5.0 0.00 0.00 0.00 29 1015.7
20260501214205 70 244 2.0 5.0 0.00 0.00 0.00 29 1015.7
20260501214005 70 273 3.0 11.0 0.00 0.00 0.00 30 1015.8
20260501213905 70 286 3.0 11.0 0.00 0.00 0.00 28 1015.8
20260501213804 70 298 4.0 11.0 0.00 0.00 0.00 29 1015.8
20260501213704 70 308 4.0 11.0 0.00 0.00 0.00 29 1015.8
20260501213604 70 311 4.0 11.0 0.00 0.00 0.00 30 1015.8
20260501213504 70 315 4.0 11.0 0.00 0.00 0.00 30 1015.8
20260501213404 70 320 5.0 11.0 0.00 0.00 0.00 30 1015.8
20260501213304 70 325 5.0 11.0 0.00 0.00 0.00 30 1015.8
20260501213205 70 328 4.0 11.0 0.00 0.00 0.00 32 1015.8
20260501213105 70 332 4.0 11.0 0.00 0.00 0.00 30 1015.8
20260501213005 70 330 4.0 11.0 0.00 0.00 0.00 30 1015.8
20260501212805 70 330 3.0 11.0 0.00 0.00 0.00 29 1015.9
20260501212605 71 318 3.0 8.0 0.00 0.00 0.00 29 1015.9
20260501212405 71 315 3.0 11.0 0.00 0.00 0.00 30 1015.9
20260501212306 71 310 3.0 11.0 0.00 0.00 0.00 29 1015.9
20260501212205 70 310 4.0 11.0 0.00 0.00 0.00 29 1015.9
20260501212104 71 310 4.0 11.0 0.00 0.00 0.00 29 1015.9
20260501212004 71 312 3.0 11.0 0.00 0.00 0.00 29 1015.9
20260501211904 70 311 3.0 11.0 0.00 0.00 0.00 29 1015.9
20260501211704 71 312 3.0 11.0 0.00 0.00 0.00 29 1016.0
20260501211504 71 313 3.0 8.0 0.00 0.00 0.00 31 1016.1
20260501211404 71 314 3.0 8.0 0.00 0.00 0.00 29 1016.0
20260501211205 71 301 3.0 8.0 0.00 0.00 0.00 31 1016.1
20260501211105 71 293 3.0 8.0 0.00 0.00 0.00 30 1016.1
20260501211005 71 280 3.0 8.0 0.00 0.00 0.00 28 1016.1
20260501210905 70 274 3.0 10.0 0.00 0.00 0.00 29 1016.1
20260501210804 70 276 3.0 10.0 0.00 0.00 0.00 29 1016.2
20260501210704 71 282 3.0 10.0 0.00 0.00 0.00 28 1016.2
20260501210504 70 283 3.0 10.0 0.00 0.00 0.00 31 1016.2
20260501210405 70 290 3.0 10.0 0.00 0.00 0.00 30 1016.2
20260501210305 70 294 3.0 10.0 0.00 0.00 0.00 28 1016.2
20260501210205 70 305 3.0 10.0 0.00 0.00 0.00 30 1016.3
20260501210105 70 310 3.0 10.0 0.00 0.00 0.00 30 1016.3
20260501210005 71 325 3.0 10.0 0.00 0.00 0.00 27 1016.3
20260501205905 71 337 3.0 9.0 0.00 0.00 0.00 29 1016.3
20260501205704 70 331 2.0 9.0 0.00 0.00 0.00 28 1016.4
20260501205605 70 332 2.0 9.0 0.00 0.00 0.00 28 1016.4
20260501205504 70 340 2.0 5.0 0.00 0.00 0.00 28 1016.4
20260501205404 70 329 2.0 5.0 0.00 0.00 0.00 30 1016.5
20260501205306 70 319 2.0 5.0 0.00 0.00 0.00 29 1016.5
20260501205104 70 277 2.0 5.0 0.00 0.00 0.00 28 1016.5
20260501205004 70 250 2.0 5.0 0.00 0.00 0.00 27 1016.5
20260501204904 70 236 1.0 5.0 0.00 0.00 0.00 28 1016.6
20260501204804 69 221 1.0 5.0 0.00 0.00 0.00 28 1016.6
20260501204705 69 221 2.0 5.0 0.00 0.00 0.00 28 1016.6
20260501204505 69 216 2.0 3.0 0.00 0.00 0.00 29 1016.4
20260501204405 69 210 2.0 3.0 0.00 0.00 0.00 28 1016.5
20260501204305 69 203 1.0 3.0 0.00 0.00 0.00 28 1016.5
20260501204205 69 198 1.0 3.0 0.00 0.00 0.00 28 1016.5
20260501204005 69 184 1.0 3.0 0.00 0.00 0.00 29 1016.6
20260501203905 68 174 1.0 3.0 0.00 0.00 0.00 29 1016.6
20260501203805 68 166 1.0 3.0 0.00 0.00 0.00 28 1016.7
20260501203705 69 161 1.0 3.0 0.00 0.00 0.00 27 1016.7
20260501203604 69 153 1.0 3.0 0.00 0.00 0.00 28 1016.7
20260501203504 69 131 1.0 3.0 0.00 0.00 0.00 29 1016.7
20260501203404 69 124 1.0 5.0 0.00 0.00 0.00 31 1016.8
20260501203304 68 122 1.0 6.0 0.00 0.00 0.00 30 1016.7
20260501203105 68 123 1.0 6.0 0.00 0.00 0.00 28 1016.8
20260501203004 68 127 1.0 6.0 0.00 0.00 0.00 29 1016.8
20260501202804 68 145 2.0 6.0 0.00 0.00 0.00 29 1016.9
20260501202704 68 155 2.0 6.0 0.00 0.00 0.00 28 1016.9
20260501202404 69 160 1.0 6.0 0.00 0.00 0.00 29 1016.9
20260501202306 69 165 1.0 4.0 0.00 0.00 0.00 31 1016.9
20260501202105 69 195 2.0 8.0 0.00 0.00 0.00 30 1016.9
20260501202005 69 202 2.0 8.0 0.00 0.00 0.00 29 1017.0
20260501201905 69 201 2.0 8.0 0.00 0.00 0.00 30 1017.0
20260501201805 68 203 3.0 8.0 0.00 0.00 0.00 30 1017.0
20260501201705 68 209 3.0 8.0 0.00 0.00 0.00 30 1017.0
20260501201605 68 210 3.0 8.0 0.00 0.00 0.00 29 1017.1
20260501201505 68 208 3.0 8.0 0.00 0.00 0.00 29 1017.1
20260501201405 68 204 3.0 8.0 0.00 0.00 0.00 29 1017.2
20260501201305 68 203 3.0 8.0 0.00 0.00 0.00 31 1017.2
20260501201105 68 195 3.0 8.0 0.00 0.00 0.00 30 1017.1
20260501201004 69 191 3.0 7.0 0.00 0.00 0.00 29 1017.2
20260501200904 69 192 2.0 7.0 0.00 0.00 0.00 29 1017.2
20260501200804 69 192 2.0 7.0 0.00 0.00 0.00 29 1017.2
20260501200704 69 188 2.0 7.0 0.00 0.00 0.00 31 1017.3
20260501200604 69 186 2.0 7.0 0.00 0.00 0.00 29 1017.2
20260501200504 69 187 2.0 7.0 0.00 0.00 0.00 30 1017.2
20260501200304 69 193 2.0 7.0 0.00 0.00 0.00 32 1017.2
20260501200204 69 194 2.0 7.0 0.00 0.00 0.00 31 1017.2
20260501200104 69 193 2.0 7.0 0.00 0.00 0.00 29 1017.2
20260501195904 69 187 2.0 6.0 0.00 0.00 0.00 29 1017.3
20260501195804 69 187 2.0 6.0 0.00 0.00 0.00 29 1017.4
20260501195705 69 181 2.0 6.0 0.00 0.00 0.00 31 1017.4
20260501195605 69 177 2.0 6.0 0.00 0.00 0.00 29 1017.4
20260501195405 70 170 1.0 4.0 0.00 0.00 0.00 30 1017.5
20260501195306 70 176 2.0 4.0 0.00 0.00 0.00 30 1017.5
20260501195205 70 189 2.0 8.0 0.00 0.00 0.00 30 1017.5
20260501195105 70 192 1.0 8.0 0.00 0.00 0.00 29 1017.5
20260501195004 70 196 1.0 8.0 0.00 0.00 0.00 29 1017.5
20260501194904 70 202 1.0 8.0 0.00 0.00 0.00 29 1017.5
20260501194804 70 201 1.0 8.0 0.00 0.00 0.00 30 1017.6
20260501194705 70 198 1.0 8.0 0.00 0.00 0.00 32 1017.6
20260501194604 70 186 1.0 8.0 0.00 0.00 0.00 30 1017.6
20260501194504 70 173 1.0 8.0 0.00 0.00 0.00 30 1017.7
20260501194405 70 169 1.0 8.0 0.00 0.00 0.00 29 1017.6
20260501194305 70 147 1.0 8.0 0.00 0.00 0.00 29 1017.6
20260501194104 69 128 1.0 4.0 0.00 0.00 0.00 30 1017.7
20260501194004 69 131 1.0 4.0 0.00 0.00 0.00 31 1017.7
20260501193905 69 145 1.0 4.0 0.00 0.00 0.00 31 1017.8
20260501193805 68 135 1.0 4.0 0.00 0.00 0.00 31 1017.8
20260501193705 68 140 1.0 4.0 0.00 0.00 0.00 31 1017.7
20260501193605 68 170 1.0 4.0 0.00 0.00 0.00 31 1017.8
20260501193505 68 187 1.0 4.0 0.00 0.00 0.00 29 1017.8
20260501193405 68 206 1.0 4.0 0.00 0.00 0.00 30 1017.7
20260501193305 68 232 1.0 3.0 0.00 0.00 0.00 31 1017.9
20260501193205 68 231 1.0 3.0 0.00 0.00 0.00 29 1017.9
20260501193105 68 230 2.0 3.0 0.00 0.00 0.00 31 1017.9
20260501193005 68 232 2.0 3.0 0.00 0.00 0.00 29 1017.9
20260501192705 68 227 1.0 3.0 0.00 0.00 0.00 32 1018.0
20260501192605 68 229 1.0 3.0 0.00 0.00 0.00 31 1018.0
20260501192505 67 231 1.0 3.0 0.00 0.00 0.00 35 1018.0
20260501192306 67 249 1.0 3.0 0.00 0.00 0.00 31 1018.1
20260501192205 67 264 2.0 3.0 0.00 0.00 0.00 33 1018.1
20260501192105 67 284 1.0 6.0 0.00 0.00 0.00 30 1018.1
20260501192005 67 296 1.0 6.0 0.00 0.00 0.00 30 1018.2
20260501191805 67 330 2.0 6.0 0.00 0.00 0.00 31 1018.1
20260501191705 67 342 2.0 6.0 0.00 0.00 0.00 31 1018.2
20260501191605 67 343 3.0 7.0 0.00 0.00 0.00 30 1018.2
20260501191505 67 348 3.0 7.0 0.00 0.00 0.00 30 1018.2
20260501191405 67 357 3.0 9.0 0.00 0.00 0.00 30 1018.1
20260501191304 67 355 4.0 9.0 0.00 0.00 0.00 30 1018.2
20260501191204 67 353 4.0 9.0 0.00 0.00 0.00 30 1018.2
20260501191105 67 359 3.0 9.0 0.00 0.00 0.00 30 1018.3
20260501191004 67 2 3.0 9.0 0.00 0.00 0.00 31 1018.2
20260501190904 67 7 4.0 9.0 0.00 0.00 0.00 31 1018.2
20260501190804 67 7 4.0 9.0 0.00 0.00 0.00 31 1018.3
20260501190604 68 10 3.0 9.0 0.00 0.00 0.00 29 1018.3
20260501190504 68 14 3.0 9.0 0.00 0.00 0.00 29 1018.3
20260501190404 68 9 3.0 9.0 0.00 0.00 0.00 31 1018.3
20260501190305 68 10 3.0 9.0 0.00 0.00 0.00 31 1018.3
20260501190205 68 5 4.0 8.0 0.00 0.00 0.00 30 1018.3
20260501190005 67 352 4.0 8.0 0.00 0.00 0.00 30 1018.4
20260501185905 67 344 3.0 8.0 0.00 0.00 0.00 30 1018.4
20260501185805 67 335 3.0 8.0 0.00 0.00 0.00 31 1018.3
20260501185705 67 320 3.0 7.0 0.00 0.00 0.00 32 1018.3
20260501185605 67 318 3.0 7.0 0.00 0.00 0.00 31 1018.3
20260501185504 67 313 3.0 7.0 0.00 0.00 0.00 31 1018.3
20260501185404 67 305 3.0 7.0 0.00 0.00 0.00 31 1018.4
20260501185306 67 303 2.0 7.0 0.00 0.00 0.00 29 1018.4
20260501185204 67 304 2.0 7.0 0.00 0.00 0.00 29 1018.5
20260501185104 67 304 2.0 7.0 0.00 0.00 0.00 29 1018.4
20260501185004 68 311 2.0 7.0 0.00 0.00 0.00 29 1018.4
20260501184804 68 314 2.0 7.0 0.00 0.00 0.00 28 1018.5
20260501184604 68 326 2.0 4.0 0.00 0.00 0.00 28 1018.5
20260501184505 68 326 2.0 4.0 0.00 0.00 0.00 29 1018.4
20260501184404 69 328 1.0 4.0 0.00 0.00 0.00 28 1018.5
20260501184304 69 332 1.0 4.0 0.00 0.00 0.00 29 1018.5
20260501184204 69 334 1.0 4.0 0.00 0.00 0.00 31 1018.5
20260501184104 69 334 1.0 4.0 0.00 0.00 0.00 30 1018.5
20260501184004 69 334 1.0 4.0 0.00 0.00 0.00 29 1018.5
20260501183905 69 347 1.0 4.0 0.00 0.00 0.00 29 1018.5
20260501183805 69 353 1.0 4.0 0.00 0.00 0.00 30 1018.6
20260501183705 69 353 1.0 4.0 0.00 0.00 0.00 29 1018.6
20260501183605 69 9 1.0 4.0 0.00 0.00 0.00 28 1018.6
20260501183505 69 18 1.0 4.0 0.00 0.00 0.00 28 1018.6
20260501183405 69 31 1.0 4.0 0.00 0.00 0.00 28 1018.6
20260501183305 69 38 1.0 4.0 0.00 0.00 0.00 28 1018.6
20260501183204 69 38 1.0 4.0 0.00 0.00 0.00 27 1018.6
20260501183104 69 60 1.0 4.0 0.00 0.00 0.00 27 1018.6
20260501183004 69 86 1.0 4.0 0.00 0.00 0.00 28 1018.7
20260501182904 69 105 1.0 3.0 0.00 0.00 0.00 30 1018.7
20260501182804 68 97 1.0 3.0 0.00 0.00 0.00 29 1018.7
20260501182704 68 86 1.0 3.0 0.00 0.00 0.00 31 1018.7
20260501182604 68 68 2.0 5.0 0.00 0.00 0.00 30 1018.7
20260501182504 68 44 2.0 10.0 0.00 0.00 0.00 30 1018.7
20260501182404 68 25 2.0 10.0 0.00 0.00 0.00 29 1018.7
20260501182306 67 22 2.0 10.0 0.00 0.00 0.00 29 1018.7
20260501182205 67 9 2.0 10.0 0.00 0.00 0.00 29 1018.7
20260501182105 67 8 2.0 10.0 0.00 0.00 0.00 29 1018.8
20260501181905 67 10 3.0 10.0 0.00 0.00 0.00 28 1018.8
20260501181805 67 12 3.0 10.0 0.00 0.00 0.00 29 1018.8
20260501181705 68 8 2.0 10.0 0.00 0.00 0.00 28 1018.8
20260501181604 68 1 2.0 10.0 0.00 0.00 0.00 28 1018.8
20260501181504 68 354 2.0 9.0 0.00 0.00 0.00 29 1018.7
20260501181404 68 8 2.0 5.0 0.00 0.00 0.00 28 1018.7
20260501181204 68 74 1.0 5.0 0.00 0.00 0.00 28 1018.8
20260501181104 68 71 1.0 5.0 0.00 0.00 0.00 28 1018.8
20260501181004 68 104 1.0 5.0 0.00 0.00 0.00 28 1018.8
20260501180804 68 191 1.0 5.0 0.00 0.00 0.00 30 1018.8
20260501180704 68 182 1.0 4.0 0.00 0.00 0.00 29 1018.8
20260501180604 68 179 1.0 4.0 0.00 0.00 0.00 29 1018.8
20260501180404 68 168 1.0 4.0 0.00 0.00 0.00 30 1018.7
20260501180304 68 156 1.0 4.0 0.00 0.00 0.00 30 1018.8
20260501180104 68 101 1.0 4.0 0.00 0.00 0.00 28 1018.8
20260501180005 68 78 1.0 4.0 0.00 0.00 0.00 28 1018.8
20260501175905 68 45 1.0 5.0 0.00 0.00 0.00 30 1018.8
20260501175805 68 25 1.0 5.0 0.00 0.00 0.00 30 1018.8
20260501175704 67 359 2.0 5.0 0.00 0.00 0.00 31 1018.9
20260501175604 67 352 2.0 5.0 0.00 0.00 0.00 29 1018.9
20260501175504 67 346 2.0 5.0 0.00 0.00 0.00 29 1018.9
20260501175404 67 344 2.0 5.0 0.00 0.00 0.00 29 1018.9
20260501175306 67 336 1.0 5.0 0.00 0.00 0.00 31 1018.9
20260501175204 67 319 1.0 5.0 0.00 0.00 0.00 30 1018.9
20260501175104 67 315 2.0 5.0 0.00 0.00 0.00 30 1018.9
20260501175004 67 313 2.0 5.0 0.00 0.00 0.00 30 1018.9
20260501174904 67 305 2.0 5.0 0.00 0.00 0.00 30 1018.8
20260501174804 67 312 2.0 5.0 0.00 0.00 0.00 30 1018.9
20260501174704 67 315 2.0 5.0 0.00 0.00 0.00 32 1018.9
20260501174604 67 313 2.0 5.0 0.00 0.00 0.00 30 1018.9
20260501174504 67 318 2.0 5.0 0.00 0.00 0.00 29 1018.9
20260501174404 67 320 2.0 5.0 0.00 0.00 0.00 27 1018.9
20260501174304 67 322 2.0 5.0 0.00 0.00 0.00 26 1018.9
20260501174204 67 336 2.0 5.0 0.00 0.00 0.00 27 1018.9
20260501174104 67 2 2.0 5.0 0.00 0.00 0.00 31 1019.0
20260501174005 67 49 1.0 5.0 0.00 0.00 0.00 30 1019.0
20260501173905 68 70 1.0 5.0 0.00 0.00 0.00 29 1019.0
20260501173805 68 92 1.0 4.0 0.00 0.00 0.00 31 1019.0
20260501173704 68 94 1.0 4.0 0.00 0.00 0.00 30 1019.0
20260501173605 68 93 1.0 4.0 0.00 0.00 0.00 30 1019.0
20260501173504 68 95 1.0 4.0 0.00 0.00 0.00 30 1019.0
20260501173404 68 98 1.0 4.0 0.00 0.00 0.00 29 1019.0
20260501173304 68 98 1.0 4.0 0.00 0.00 0.00 30 1019.0
20260501173005 68 194 1.0 3.0 0.00 0.00 0.00 29 1019.0
20260501172905 67 194 1.0 3.0 0.00 0.00 0.00 28 1019.1
20260501172805 67 202 1.0 3.0 0.00 0.00 0.00 29 1019.1
20260501172705 67 133 1.0 6.0 0.00 0.00 0.00 29 1019.1
20260501172505 67 110 1.0 6.0 0.00 0.00 0.00 30 1019.1
20260501172404 67 344 1.0 6.0 0.00 0.00 0.00 31 1019.1
20260501172205 67 9 1.0 6.0 0.00 0.00 0.00 31 1019.2
20260501172105 67 37 1.0 6.0 0.00 0.00 0.00 30 1019.2
20260501172004 67 35 1.0 6.0 0.00 0.00 0.00 29 1019.2
20260501171904 67 38 1.0 6.0 0.00 0.00 0.00 29 1019.2
20260501171704 68 33 1.0 3.0 0.00 0.00 0.00 29 1019.2
20260501171504 68 27 1.0 3.0 0.00 0.00 0.00 28 1019.2
20260501171404 68 41 1.0 3.0 0.00 0.00 0.00 27 1019.2
20260501171304 68 53 1.0 3.0 0.00 0.00 0.00 29 1019.2
20260501171204 67 53 1.0 3.0 0.00 0.00 0.00 27 1019.2
20260501171104 67 50 1.0 3.0 0.00 0.00 0.00 27 1019.1
20260501171005 68 56 1.0 3.0 0.00 0.00 0.00 27 1019.2
20260501170905 68 43 1.0 3.0 0.00 0.00 0.00 28 1019.2
20260501170704 67 35 1.0 4.0 0.00 0.00 0.00 32 1019.3
20260501170604 67 32 1.0 4.0 0.00 0.00 0.00 36 1019.3
20260501170504 67 44 1.0 4.0 0.00 0.00 0.00 35 1019.2
20260501170404 66 45 2.0 4.0 0.00 0.00 0.00 35 1019.2
20260501170304 66 48 2.0 4.0 0.00 0.00 0.00 35 1019.3
20260501170204 66 50 2.0 4.0 0.00 0.00 0.00 33 1019.2
20260501170004 66 48 2.0 4.0 0.00 0.00 0.00 33 1019.1
20260501165904 66 48 2.0 4.0 0.00 0.00 0.00 32 1019.1
20260501165804 66 48 1.0 4.0 0.00 0.00 0.00 33 1019.1
20260501165704 67 53 1.0 4.0 0.00 0.00 0.00 34 1019.1
20260501165604 67 58 1.0 4.0 0.00 0.00 0.00 35 1019.2
20260501165505 67 46 1.0 3.0 0.00 0.00 0.00 35 1019.2
20260501165405 67 37 1.0 4.0 0.00 0.00 0.00 36 1019.1
20260501165306 66 23 1.0 4.0 0.00 0.00 0.00 37 1019.1
20260501165204 66 3 1.0 4.0 0.00 0.00 0.00 36 1019.2
20260501165104 66 1 1.0 4.0 0.00 0.00 0.00 37 1019.2
20260501165004 66 1 1.0 4.0 0.00 0.00 0.00 35 1019.2
20260501164904 65 32 1.0 4.0 0.00 0.00 0.00 36 1019.2
20260501164804 65 42 1.0 4.0 0.00 0.00 0.00 34 1019.2
20260501164704 65 43 1.0 4.0 0.00 0.00 0.00 35 1019.3
20260501164604 65 52 1.0 4.0 0.00 0.00 0.00 34 1019.3
20260501164504 65 55 1.0 4.0 0.00 0.00 0.00 34 1019.2
20260501164404 65 63 2.0 4.0 0.00 0.00 0.00 35 1019.2
20260501164204 65 67 1.0 4.0 0.00 0.00 0.00 36 1019.3
20260501164104 64 67 1.0 4.0 0.00 0.00 0.00 33 1019.2
20260501164005 65 61 1.0 4.0 0.00 0.00 0.00 33 1019.2
20260501163905 65 34 1.0 4.0 0.00 0.00 0.00 36 1019.3
20260501163804 64 356 1.0 4.0 0.00 0.00 0.00 39 1019.3
20260501163705 64 348 1.0 4.0 0.00 0.00 0.00 37 1019.3
20260501163404 64 277 1.0 4.0 0.00 0.00 0.00 38 1019.4
20260501163304 64 249 1.0 3.0 0.00 0.00 0.00 39 1019.4
20260501163204 64 243 1.0 3.0 0.00 0.00 0.00 39 1019.3
20260501163104 64 231 1.0 3.0 0.00 0.00 0.00 37 1019.3
20260501163004 65 221 1.0 3.0 0.00 0.00 0.00 38 1019.4
20260501162604 64 155 1.0 3.0 0.00 0.00 0.00 43 1019.4
20260501162404 64 165 1.0 3.0 0.00 0.00 0.00 44 1019.4
20260501162104 63 137 2.0 4.0 0.00 0.00 0.00 44 1019.3
20260501161905 63 122 2.0 4.0 0.00 0.00 0.00 42 1019.4
20260501161804 63 109 2.0 4.0 0.00 0.00 0.00 41 1019.4
20260501161704 63 105 2.0 4.0 0.00 0.00 0.00 42 1019.4
20260501161604 63 100 2.0 4.0 0.00 0.00 0.00 42 1019.5
20260501161504 63 96 2.0 4.0 0.00 0.00 0.00 42 1019.4
20260501161404 63 96 1.0 4.0 0.00 0.00 0.00 41 1019.5
20260501161304 64 95 1.0 4.0 0.00 0.00 0.00 40 1019.5
20260501161204 64 92 1.0 4.0 0.00 0.00 0.00 40 1019.5
20260501161104 64 86 1.0 4.0 0.00 0.00 0.00 40 1019.5
20260501161004 65 85 1.0 4.0 0.00 0.00 0.00 40 1019.5
20260501160804 65 124 1.0 2.0 0.00 0.00 0.00 42 1019.5
20260501160704 65 130 0.0 2.0 0.00 0.00 0.00 42 1019.4
20260501160604 64 130 1.0 2.0 0.00 0.00 0.00 41 1019.4
20260501160504 64 112 1.0 2.0 0.00 0.00 0.00 42 1019.4
20260501160405 64 106 1.0 2.0 0.00 0.00 0.00 42 1019.4
20260501160305 64 99 1.0 4.0 0.00 0.00 0.00 42 1019.4
20260501160204 64 99 1.0 4.0 0.00 0.00 0.00 41 1019.4
20260501160104 64 99 1.0 4.0 0.00 0.00 0.00 40 1019.4
20260501155904 64 92 1.0 4.0 0.00 0.00 0.00 43 1019.5
20260501155804 64 88 1.0 4.0 0.00 0.00 0.00 42 1019.4
20260501155704 64 75 1.0 4.0 0.00 0.00 0.00 40 1019.4